Driggs, ID

8:33 AM MDT on April 23, 2017 (GMT -0600)
Driggs

Weather History for KDIJ - March, 2013

Change the Weather History Date:

Wednesday, March 27, 2013

  Actual Average (KJAC) Record (KJAC)
Temperature  
Mean Temperature 33 °F -  
Max Temperature 43 °F 43 °F 59 °F (2015)
Min Temperature 27 °F 16 °F -5 °F (2009)
Degree Days  
Heating Degree Days 32    
Moisture  
Dew Point 27 °F    
Average Humidity 81    
Maximum Humidity 93    
Minimum Humidity 63    
Precipitation  
Precipitation 0.00 in - - ()
Sea Level Pressure  
Sea Level Pressure 30.01 in    
Wind  
Wind Speed 3 mph (East)    
Max Wind Speed 7 mph    
Max Gust Speed -    
Visibility 10 miles    
Events Rain    
Averages and records for this station are not official NWS values.
T = Trace of Precipitation, MM = Missing Value Source: NWS Daily Summary

Daily Weather History Graph

Daily Weather History Graph

Search for Another Location

Airport or City:

Trip Planner

Search our weather history database for the weather conditions in past years. The results will help you decide how hot, cold, wet, or windy it might be!

Date:

Astronomy

Mar. 27, 2013 Rise Set
Actual Time 7:14 AM MDT 7:45 PM MDT
Civil Twilight 6:45 AM MDT 8:14 PM MDT
Nautical Twilight 6:11 AM MDT 8:48 PM MDT
Astronomical Twilight 5:36 AM MDT 9:23 PM MDT
Moon 8:36 PM MDT (3/27) 7:05 AM MDT (3/27)
Length of Visible Light 13h 28m
Length of Day
12h 31m
Full, 100% of the Moon is Illuminated
Mar 27
Full
Apr 2
Last Quarter
Apr 10
New
Apr 18
First Quarter
Apr 25
Full

Hourly Weather History & Observations

Time (MDT) Temp. Windchill Dew Point Humidity Pressure Visibility Wind Dir Wind Speed Gust Speed Precip Events Conditions
12:56 AM 32.0 °F 27.5 °F 27.1 °F 82% 29.97 in 10.0 mi SW 4.6 mph - N/A   Overcast
1:33 AM 28.4 °F - 26.6 °F 93% 30.00 in 10.0 mi Calm Calm - N/A   Mostly Cloudy
1:56 AM 28.0 °F - 26.1 °F 92% 29.98 in 10.0 mi Calm Calm - N/A   Overcast
2:56 AM 29.1 °F - 27.1 °F 92% 29.98 in 10.0 mi Calm Calm - N/A   Overcast
3:04 AM 28.4 °F 24.6 °F 26.6 °F 93% 30.01 in 10.0 mi ESE 3.5 mph - N/A   Overcast
3:11 AM 28.4 °F 23.3 °F 26.6 °F 93% 30.01 in 10.0 mi ESE 4.6 mph - N/A   Overcast
3:25 AM 28.4 °F 23.3 °F 26.6 °F 93% 30.01 in 10.0 mi ESE 4.6 mph - N/A   Overcast
3:56 AM 29.1 °F 22.1 °F 27.1 °F 92% 29.97 in 10.0 mi ESE 6.9 mph - N/A   Overcast
4:04 AM 28.4 °F 22.2 °F 26.6 °F 93% 30.00 in 10.0 mi East 5.8 mph - N/A   Mostly Cloudy
4:56 AM 30.0 °F 26.5 °F 26.1 °F 85% 29.96 in 10.0 mi SSW 3.5 mph - N/A   Overcast
5:09 AM 28.4 °F - 26.6 °F 93% 30.00 in 10.0 mi Calm Calm - N/A   Overcast
5:21 AM 28.4 °F 23.3 °F 26.6 °F 93% 30.01 in 10.0 mi South 4.6 mph - N/A   Overcast
5:49 AM 28.4 °F 22.2 °F 26.6 °F 93% 30.01 in 10.0 mi East 5.8 mph - N/A   Overcast
5:56 AM 29.1 °F 23.0 °F 27.1 °F 92% 29.97 in 10.0 mi East 5.8 mph - N/A   Overcast
6:56 AM 29.1 °F 25.4 °F 25.2 °F 85% 29.99 in 10.0 mi ESE 3.5 mph - N/A   Overcast
7:56 AM 30.0 °F 24.1 °F 25.2 °F 82% 30.01 in 10.0 mi East 5.8 mph - N/A   Overcast
8:56 AM 31.1 °F 27.7 °F 27.1 °F 85% 30.01 in 10.0 mi SSE 3.5 mph - N/A   Overcast
9:56 AM 32.9 °F - 27.1 °F 79% 30.02 in 10.0 mi Calm Calm - N/A   Overcast
10:56 AM 36.9 °F 33.1 °F 29.1 °F 74% 30.02 in 10.0 mi East 4.6 mph - N/A   Overcast
11:56 AM 36.9 °F 34.3 °F 29.1 °F 74% 30.02 in 10.0 mi NE 3.5 mph - N/A   Mostly Cloudy
12:56 PM 38.8 °F 35.4 °F 29.1 °F 68% 30.00 in 10.0 mi NE 4.6 mph - N/A   Scattered Clouds
1:56 PM 38.8 °F 35.4 °F 30.0 °F 71% 30.02 in 3.0 mi North 4.6 mph - 0.00 in Rain Light Rain
2:06 PM 39.2 °F 37.0 °F 30.2 °F 70% 30.05 in 10.0 mi NE 3.5 mph - 0.00 in Rain Light Rain
2:56 PM 39.9 °F 37.8 °F 28.0 °F 63% 30.01 in 10.0 mi WNW 3.5 mph - 0.00 in   Scattered Clouds
3:56 PM 38.8 °F 35.4 °F 31.1 °F 74% 30.02 in 10.0 mi NNE 4.6 mph - 0.00 in   Mostly Cloudy
4:56 PM 39.9 °F 37.8 °F 29.1 °F 65% 30.02 in 10.0 mi East 3.5 mph - N/A   Mostly Cloudy
5:56 PM 39.9 °F 37.8 °F 30.0 °F 68% 30.01 in 10.0 mi East 3.5 mph - N/A   Mostly Cloudy
6:56 PM 38.8 °F 33.8 °F 28.0 °F 65% 30.02 in 10.0 mi SSE 6.9 mph - N/A   Clear
7:56 PM 36.0 °F 31.1 °F 28.0 °F 73% 30.03 in 10.0 mi South 5.8 mph - N/A   Clear
8:56 PM 32.9 °F - 27.1 °F 79% 30.06 in 10.0 mi Calm Calm - N/A   Mostly Cloudy
9:56 PM 28.0 °F - 23.0 °F 81% 30.07 in 10.0 mi Calm Calm - N/A   Clear
10:56 PM 27.1 °F 23.2 °F 21.0 °F 78% 30.06 in 10.0 mi East 3.5 mph - N/A   Clear
11:56 PM 30.0 °F 23.2 °F 23.0 °F 75% 30.04 in 10.0 mi East 6.9 mph - N/A   Clear